| time (UTC) | temp C | wind direction | speed KPH | gust KPH | rain 1hr cm | rain 24hr cm | rain mn cm | humidity % | barometer mb |
| 20260906123045 | 21 | 0 | 0.0 | 0.0 | 0.00 | 0.36 | 0.00 | 96 | 1014.4 |
| 20260906121545 | 21 | 0 | 0.0 | 3.2 | 0.00 | 0.36 | 0.00 | 95 | 1014.3 |
| 20260906120047 | 21 | 46 | 0.0 | 4.8 | 0.00 | 0.36 | 0.00 | 95 | 1014.1 |
| 20260906114548 | 21 | 0 | 0.0 | 3.2 | 0.00 | 1.02 | 0.00 | 96 | 1013.8 |
| 20260906113045 | 21 | 0 | 0.0 | 3.2 | 0.00 | 1.02 | 0.00 | 95 | 1013.6 |
| 20260906111542 | 21 | 0 | 0.0 | 1.6 | 0.00 | 1.02 | 0.00 | 95 | 1013.4 |
| 20260906110040 | 21 | 0 | 0.0 | 3.2 | 0.00 | 1.02 | 0.00 | 95 | 1013.2 |
| 20260906104556 | 21 | 0 | 0.0 | 0.0 | 0.00 | 1.02 | 0.00 | 95 | 1012.9 |
| 20260906103044 | 21 | 0 | 0.0 | 0.0 | 0.00 | 1.02 | 0.00 | 95 | 1012.9 |
| 20260906101547 | 21 | 0 | 0.0 | 0.0 | 0.00 | 1.02 | 0.00 | 95 | 1012.8 |
| 20260906100040 | 21 | 0 | 0.0 | 0.0 | 0.00 | 1.02 | 0.00 | 95 | 1012.6 |
| 20260906094558 | 21 | 0 | 0.0 | 0.0 | 0.00 | 1.02 | 0.00 | 95 | 1012.7 |
| 20260906093108 | 21 | 0 | 0.0 | 3.2 | 0.00 | 1.02 | 0.00 | 95 | 1012.8 |
| 20260906091543 | 21 | 0 | 0.0 | 1.6 | 0.00 | 1.02 | 0.00 | 95 | 1012.8 |
| 20260906090043 | 20 | 0 | 0.0 | 0.0 | 0.00 | 1.02 | 0.00 | 95 | 1012.9 |
| 20260906084541 | 20 | 0 | 0.0 | 0.0 | 0.00 | 1.02 | 0.00 | 95 | 1012.9 |
| 20260906083049 | 20 | 0 | 0.0 | 0.0 | 0.00 | 1.02 | 0.00 | 95 | 1012.8 |
| 20260906081545 | 20 | 0 | 0.0 | 0.0 | 0.00 | 1.02 | 0.00 | 94 | 1012.7 |
| 20260906080044 | 20 | 0 | 0.0 | 0.0 | 0.00 | 1.02 | 0.00 | 94 | 1012.7 |
| 20260906074541 | 21 | 0 | 0.0 | 0.0 | 0.00 | 1.02 | 0.00 | 94 | 1012.5 |
| 20260906073046 | 21 | 0 | 0.0 | 0.0 | 0.00 | 1.02 | 0.00 | 94 | 1012.8 |
| 20260906071546 | 21 | 0 | 0.0 | 0.0 | 0.00 | 1.02 | 0.00 | 94 | 1012.7 |
| 20260906070041 | 21 | 0 | 0.0 | 0.0 | 0.00 | 1.02 | 0.00 | 94 | 1012.5 |
| 20260906064544 | 21 | 0 | 0.0 | 0.0 | 0.00 | 1.02 | 0.00 | 94 | 1012.7 |
| 20260906063042 | 21 | 0 | 0.0 | 0.0 | 0.00 | 1.02 | 0.00 | 94 | 1012.8 |
| 20260906061540 | 21 | 0 | 0.0 | 0.0 | 0.00 | 1.02 | 0.00 | 94 | 1012.7 |
| 20260906060047 | 21 | 0 | 0.0 | 0.0 | 0.00 | 1.02 | 0.00 | 94 | 1012.8 |
| 20260906054548 | 21 | 0 | 0.0 | 0.0 | 0.00 | 1.02 | 0.00 | 93 | 1012.7 |
| 20260906053041 | 21 | 0 | 0.0 | 0.0 | 0.00 | 1.02 | 0.00 | 93 | 1012.7 |
| 20260906051555 | 21 | 0 | 0.0 | 0.0 | 0.00 | 1.02 | 0.00 | 93 | 1012.7 |
| 20260906050047 | 21 | 0 | 0.0 | 0.0 | 0.00 | 1.02 | 0.00 | 93 | 1012.6 |
| 20260906044542 | 21 | 0 | 0.0 | 0.0 | 0.00 | 1.02 | 0.00 | 93 | 1012.5 |
| 20260906043041 | 21 | 0 | 0.0 | 0.0 | 0.00 | 1.02 | 0.00 | 92 | 1012.5 |
| 20260906041544 | 21 | 0 | 0.0 | 0.0 | 0.00 | 1.02 | 0.00 | 92 | 1012.4 |
| 20260906040047 | 21 | 0 | 0.0 | 0.0 | 0.00 | 1.02 | 0.00 | 92 | 1012.5 |
| 20260906034541 | 21 | 0 | 0.0 | 0.0 | 0.00 | 1.02 | 1.02 | 92 | 1012.4 |
| 20260906033048 | 21 | 0 | 0.0 | 0.0 | 0.00 | 1.02 | 1.02 | 92 | 1012.7 |
| 20260906031541 | 21 | 0 | 0.0 | 3.2 | 0.00 | 1.02 | 1.02 | 92 | 1012.9 |
| 20260906030044 | 21 | 0 | 0.0 | 0.0 | 0.00 | 1.02 | 1.02 | 91 | 1013.1 |
| 20260906024550 | 22 | 0 | 0.0 | 3.2 | 0.00 | 1.02 | 1.02 | 91 | 1013.2 |
| 20260906023041 | 22 | 261 | 1.6 | 4.8 | 0.00 | 1.02 | 1.02 | 90 | 1013.0 |
| 20260906021540 | 22 | 0 | 0.0 | 0.0 | 0.00 | 1.02 | 1.02 | 90 | 1012.9 |
| 20260906020046 | 22 | 0 | 0.0 | 0.0 | 0.00 | 1.02 | 1.02 | 90 | 1012.9 |
| 20260906014613 | 22 | 0 | 0.0 | 0.0 | 0.00 | 1.02 | 1.02 | 89 | 1012.8 |
| 20260906013047 | 22 | 0 | 0.0 | 0.0 | 0.00 | 1.02 | 1.02 | 89 | 1012.6 |
| 20260906011540 | 22 | 0 | 0.0 | 0.0 | 0.00 | 1.02 | 1.02 | 89 | 1012.4 |
| 20260906010050 | 22 | 0 | 0.0 | 0.0 | 0.00 | 1.02 | 1.02 | 88 | 1012.1 |
| 20260906004544 | 23 | 0 | 0.0 | 0.0 | 0.00 | 1.02 | 1.02 | 88 | 1011.9 |
| 20260906003047 | 23 | 0 | 0.0 | 0.0 | 0.00 | 1.02 | 1.02 | 87 | 1011.7 |
| 20260906001544 | 23 | 0 | 0.0 | 0.0 | 0.00 | 1.02 | 1.02 | 87 | 1011.9 |
| 20260906000046 | 23 | 0 | 0.0 | 0.0 | 0.00 | 1.02 | 1.02 | 86 | 1012.0 |
| 20260905234544 | 24 | 0 | 0.0 | 0.0 | 0.00 | 1.02 | 1.02 | 86 | 1012.1 |
| 20260905233048 | 24 | 0 | 0.0 | 0.0 | 0.00 | 1.02 | 1.02 | 84 | 1012.0 |
| 20260905231544 | 25 | 0 | 0.0 | 0.0 | 0.00 | 1.02 | 1.02 | 83 | 1012.0 |
| 20260905230042 | 25 | 0 | 0.0 | 0.0 | 0.00 | 1.02 | 1.02 | 80 | 1012.0 |
| 20260905224540 | 26 | 0 | 0.0 | 0.0 | 0.00 | 1.02 | 1.02 | 79 | 1011.9 |
| 20260905223044 | 27 | 0 | 0.0 | 0.0 | 0.00 | 1.02 | 1.02 | 79 | 1012.0 |
| 20260905221604 | 27 | 0 | 0.0 | 0.0 | 0.00 | 1.02 | 1.02 | 75 | 1012.2 |
| 20260905220046 | 28 | 0 | 0.0 | 0.0 | 0.00 | 1.02 | 1.02 | 75 | 1012.2 |
| 20260905214544 | 28 | 0 | 0.0 | 0.0 | 0.00 | 1.02 | 1.02 | 72 | 1012.1 |
| 20260905213057 | 28 | 95 | 0.0 | 3.2 | 0.00 | 1.02 | 1.02 | 69 | 1011.8 |
| 20260905211545 | 28 | 0 | 0.0 | 3.2 | 0.00 | 1.02 | 1.02 | 71 | 1011.7 |
| 20260905210052 | 28 | 0 | 0.0 | 6.4 | 0.00 | 1.02 | 1.02 | 68 | 1011.6 |
| 20260905204547 | 28 | 0 | 0.0 | 4.8 | 0.00 | 1.02 | 1.02 | 69 | 1011.9 |
| 20260905203044 | 28 | 211 | 0.0 | 4.8 | 0.00 | 1.02 | 1.02 | 68 | 1011.8 |
| 20260905201553 | 28 | 292 | 0.0 | 4.8 | 0.00 | 1.02 | 1.02 | 68 | 1011.9 |
| 20260905200046 | 28 | 0 | 0.0 | 6.4 | 0.00 | 1.02 | 1.02 | 67 | 1012.0 |
| 20260905194549 | 28 | 13 | 0.0 | 8.0 | 0.00 | 1.07 | 1.02 | 65 | 1012.2 |
| 20260905193051 | 28 | 252 | 1.6 | 8.0 | 0.00 | 1.07 | 1.02 | 68 | 1012.3 |
| 20260905191546 | 27 | 191 | 1.6 | 8.0 | 0.00 | 1.07 | 1.02 | 69 | 1012.6 |
| 20260905190044 | 28 | 184 | 1.6 | 8.0 | 0.00 | 1.07 | 1.02 | 68 | 1012.8 |
| 20260905184552 | 28 | 287 | 3.2 | 8.0 | 0.00 | 1.07 | 1.02 | 69 | 1013.0 |
| 20260905183046 | 28 | 200 | 1.6 | 8.0 | 0.00 | 1.07 | 1.02 | 70 | 1013.2 |
| 20260905181603 | 28 | 211 | 3.2 | 8.0 | 0.00 | 1.07 | 1.02 | 70 | 1013.2 |
| 20260905180043 | 27 | 254 | 1.6 | 6.4 | 0.00 | 1.07 | 1.02 | 71 | 1013.4 |
| 20260905174543 | 27 | 155 | 1.6 | 9.7 | 0.00 | 1.07 | 1.02 | 72 | 1013.4 |
| 20260905173043 | 27 | 168 | 1.6 | 6.4 | 0.00 | 1.07 | 1.02 | 73 | 1013.3 |
| 20260905171545 | 27 | 0 | 1.6 | 6.4 | 0.00 | 1.07 | 1.02 | 76 | 1013.4 |
| 20260905170039 | 27 | 163 | 0.0 | 6.4 | 0.00 | 1.07 | 1.02 | 76 | 1013.7 |
| 20260905164546 | 26 | 194 | 1.6 | 6.4 | 0.03 | 1.07 | 1.02 | 77 | 1014.2 |
| 20260905163045 | 26 | 223 | 0.0 | 4.8 | 0.03 | 1.07 | 1.02 | 77 | 1014.7 |
| 20260905161557 | 26 | 304 | 1.6 | 3.2 | 0.03 | 1.07 | 1.02 | 84 | 1014.6 |
| 20260905160048 | 26 | 0 | 0.0 | 4.8 | 0.03 | 1.07 | 1.02 | 90 | 1014.5 |
| 20260905154543 | 24 | 5 | 0.0 | 4.8 | 0.00 | 1.04 | 0.99 | 96 | 1014.7 |
| 20260905153044 | 23 | 0 | 0.0 | 0.0 | 0.00 | 1.04 | 0.99 | 96 | 1014.8 |
| 20260905151545 | 22 | 0 | 0.0 | 3.2 | 0.00 | 1.04 | 0.99 | 96 | 1014.6 |
| 20260905150045 | 22 | 0 | 0.0 | 3.2 | 0.00 | 1.04 | 0.99 | 96 | 1014.6 |
| 20260905144545 | 22 | 0 | 0.0 | 6.4 | 0.00 | 1.04 | 0.99 | 96 | 1013.4 |
| 20260905143045 | 22 | 225 | 3.2 | 8.0 | 0.00 | 1.04 | 0.99 | 96 | 1012.8 |
| 20260905141541 | 22 | 180 | 1.6 | 8.0 | 0.00 | 1.04 | 0.99 | 96 | 1013.5 |
| 20260905140045 | 21 | 0 | 1.6 | 9.7 | 0.03 | 1.04 | 0.99 | 96 | 1013.4 |
| 20260905134547 | 21 | 232 | 3.2 | 8.0 | 0.03 | 1.04 | 0.99 | 96 | 1013.6 |
| 20260905133041 | 21 | 0 | 0.0 | 3.2 | 0.03 | 1.04 | 0.99 | 96 | 1014.4 |
| 20260905131544 | 21 | 0 | 0.0 | 1.6 | 0.03 | 1.04 | 0.99 | 96 | 1014.0 |
| 20260905130042 | 21 | 0 | 0.0 | 1.6 | 0.30 | 1.02 | 0.97 | 96 | 1014.6 |
| 20260905124541 | 21 | 0 | 0.0 | 0.0 | 0.69 | 1.02 | 0.97 | 96 | 1014.7 |